Location: Pl�tzky
(52.0521°N, 11.8020°E)
Time: 00:00:08
(UTC+00:00)

USA 229 DEB - Pass Details

Date: 22 November 2019
Orbit: 997 x 1215 km, 63.4° (Epoch: 04 December)

Event Time Altitude Azimuth Distance (km) Brightness Sun altitude
Rises 16:31:59 0° 236° (SW) 3,747 8.2 -11.8°
Reaches altitude 10° 16:34:34 10° 239° (WSW) 2,818 7.3 -12.2°
Maximum altitude 16:41:10 67° 322° (NW) 1,149 4.0 -13.1°
Enters shadow 16:47:27 13° 44° (NE) 2,719 5.3 -14.1°
